STARLINK-35022, 65409

Orbit data source: Space-Track

STARLINK-35022, 65409 is a payload satellite owned by SpaceX/Seattle (US) in LEO that was launched on Sun, 31 Aug 2025 UTC via an FALCON 9 launch vehicle from the Air Force Eastern Test Range (AFETR). Payload-class satellites include a variety of spacecraft equipped with specific instruments for various scientific and technological missions. These include communications satellites like Starlink; space stations such as the ISS; scientific satellites like the Hubble; Earth observation satellites from companies like Planet Labs, Umbra, and HawkEye 360; GPS; miniature CubeSats for education and research; and military/defense satellites.

Loading next visibility...
Identifier
65409, 2025-192F
Orbit
LEO
Country
Flag of USUS
Related business
Manufacturer
SpaceX/Seattle
Mission
Operational Commercial Communications
Bus & Motor
STARLINK V2MO, Unknown motor
Mass
575 kg wet, ~530 kg dry
Launch date (UTC)
2025-08-31 (10 months ago)
Launch vehicle
FALCON 9
Launch site
Air Force Eastern Test Range (AFETR)
Object type
Payload
Rocket body
Debris
Shape & HBR
Box + 2 Pan, 17.7 m
Radar Cross Section
36.964 m², Large (>1 m²)

Expand to show TLE details & history
Last TLE update: 1 day ago

TLE from 1 day ago
0 STARLINK-35022
1 65409U 25192F   26170.83993792  .00005228  00000-0  18010-3 0  9999
2 65409  53.1590 117.1846 0001079  89.2434 270.8691 15.31699818 45030
Epoch: 2026-06-19T20:09Z
TLE epoch observation values (Epoch: 2026-06-19T20:09:30.636Z)
Latitude
-0.00002°
Longitude
-93.25621°
Altitude
471.63 km
Speed
7.631 km/s
True Right ascension
07h 48m 44s
True Declination
0° 00' 00"
Sunlit
Object was in daylight at epoch
Visualization orbit readout
Latitude
Unknown
Longitude
Unknown
Altitude
Unknown
Speed
Unknown
Apparent Right ascension
Unknown
Apparent Declination
Unknown
Sunlit
N/A
Visualization observer readout
Local Sidereal Time
07:12:31
Azimuth
Unknown
Elevation
Unknown
Doppler factor
Unknown
Orbital elements
Apogee altitude
471.736 km
Perigee altitude
470.258 km
Semi-major axis
6,849.134 km
Eccentricity
0.00011
Inclination
53.159°
RAAN
117.1846°
Arg. of periapsis
89.2434°
True anomaly
270.85674°
Mean anomaly
270.8691°
Eccentric anomaly
270.86292°
Mean motion
3.82904 °/min
Orbital period
94.02 mins
BSTAR
0.0001801
Loading maneuver chart data...
Computing Atmospheric mass density...
Loading historical data...
Loading historical data...
Loading historical data...
Loading historical data...
Loading historical data...
Loading historical data...
Loading historical data...

Documentation

Showing up to 5 results
|